Hourly Weather Roundup
Issued by NWS Central Illinois

Home | Current Version | Previous Version | Text Only | Print | Product List | Glossary On
Versions: 1 2 3 4 5 6 7 8 9 10 11 12 13 14 15 16 17 18 19 20 21 22 23 24 25 26 27 28 29 30 31 32 33 34 35 36 37 38 39 40 41 42 43 44 45 46 47 48 49 50
000
NZUS43 KILX 221210
HWRILX

AREA WEATHER ROUNDUP
NATIONAL WEATHER SERVICE, LINCOLN IL
600 AM CST MON DEC 22 2014


CITY           SKY/WX    TMP DP  RH WIND       PRES   REMARKS
BLOOMINGTON    CLOUDY    34  30  85 SE15      29.88F WCI  24
6HR MIN TEMP:  33; 6HR MAX TEMP:  34;

CHAMPAIGN      CLOUDY    33  29  85 E13       29.91S WCI  24
6HR MIN TEMP:  29; 6HR MAX TEMP:  33; 6HR PCP: TRACE;

DECATUR        CLOUDY    34  30  85 SE12      29.87F WCI  25
6HR MIN TEMP:  34; 6HR MAX TEMP:  35;

FLORA          CLOUDY    36  32  86 E6        29.89F WCI  31
6HR MIN TEMP:  33; 6HR MAX TEMP:  36;

GALESBURG      CLOUDY    35  33  91 E8        29.81F WCI  28
JACKSONVILLE   CLOUDY    39  33  80 E14       29.80F WCI  31
6HR MIN TEMP:  39; 6HR MAX TEMP:  40;

LACON          CLOUDY    33  30  86 SE6       29.87F WCI  28
6HR MIN TEMP:  33; 6HR MAX TEMP:  35;

LAWRENCEVILLE  CLOUDY    35  31  85 E6        29.93F WCI  30
6HR MIN TEMP:  30; 6HR MAX TEMP:  35;

LITCHFIELD     DRIZZLE   36  32  85 SE9       29.82F WCI  29
$$


CITY           SKY/WX    TMP DP  RH WIND       PRES   REMARKS
LINCOLN        CLOUDY    36  32  87 SE8       29.86F WCI  29
6HR MIN TEMP:  35; 6HR MAX TEMP:  37;

MACOMB         CLOUDY    37  33  86 SE12      29.82F WCI  29
MATTOON        CLOUDY    34  28  79 SE12      29.88F WCI  25
6HR MIN TEMP:  31; 6HR MAX TEMP:  34;

MT CARMEL AP   CLOUDY    37  32  81 E7        29.91F WCI  32
OLNEY-NOBLE AP CLOUDY    36  32  87 E6        29.90F WCI  31
PARIS          CLOUDY    33  31  90 E5        29.93S WCI  29
6HR MIN TEMP:  31; 6HR MAX TEMP:  33;

PEORIA         CLOUDY    37  30  75 SE9       29.86F WCI  30
6HR MIN TEMP:  36; 6HR MAX TEMP:  38; 6HR PCP: TRACE;

PONTIAC        CLOUDY    33  31  94 SE12      29.91S FOG     WCI  24
RANTOUL        CLOUDY    34  31  89 SE9       29.91S WCI  27
6HR MIN TEMP:  32; 6HR MAX TEMP:  34;

ROBINSON       CLOUDY    35  31  86 E5        29.93F WCI  31
6HR MIN TEMP:  29; 6HR MAX TEMP:  35;

SPRINGFIELD    CLOUDY    37  31  78 SE12      29.84F WCI  29
6HR MIN TEMP:  37; 6HR MAX TEMP:  40; 6HR PCP: TRACE;

TAYLORVILLE    DRIZZLE   34  32  93 SE10      29.84F WCI  26
$$

...REGIONAL REPORTS...


CITY           SKY/WX    TMP DP  RH WIND       PRES   REMARKS
CHICAGO O`HARE CLOUDY    31  27  85 SE8       29.94F WCI  23
KANKAKEE       CLOUDY    31  29  90 E9        29.94F WCI  23
MOLINE         CLOUDY    36  31  82 SE10      29.82S WCI  28
MOUNT VERNON   CLOUDY    37  28  70 E7        29.86F WCI  32
PITTSFIELD     CLOUDY    39  33  79 SE9       29.79S WCI  33
QUINCY         CLOUDY    39  32  76 SE12      29.75F WCI  32
ROCKFORD       DRIZZLE   33  29  85 SE14      29.91F FOG     WCI  23
$$


CITY           SKY/WX    TMP DP  RH WIND       PRES   REMARKS
BURLINGTON     LGT RAIN  39  32  76 SE12      29.77F WCI  32
CEDAR RAPIDS   CLOUDY    36  34  92 SE9G20    29.74F WCI  29
DES MOINES     LGT RAIN  41  37  86 SE13      29.66F WCI  34
KIRKSVILLE     CLOUDY    40  36  86 SE12      29.71F WCI  33
OTTUMWA        CLOUDY    39  34  82 SE15      29.71F WCI  31
ST LOUIS       LGT RAIN  40  35  83 E10       29.80F WCI  33
$$


CITY           SKY/WX    TMP DP  RH WIND       PRES   REMARKS
TERRE HAUTE    CLOUDY    34  28  79 SE6       29.94F WCI  29
EVANSVILLE     CLOUDY    39  32  76 E3        29.92F
INDIANAPOLIS   CLOUDY    31  27  85 E7        29.96S WCI  24
LAFAYETTE      CLOUDY    31  27  85 E7        29.95F WCI  24
MADISON        LGT SNOW  34  30  85 SE12      29.87S FOG     WCI  25
MILWAUKEE      MOCLDY    35  29  78 S10       29.95S WCI  27
$$




USA.gov is the U.S. government's official web portal to all federal, state and local government web resources and services.